Regional Weather Roundup
Issued by NWS

Home | Current Version | Previous Version | Text Only | Print | Product List | Glossary Off
Versions: 1 2 3 4 5 6 7 8 9 10 11 12 13 14 15 16 17 18 19 20 21 22 23 24 25 26 27 28 29 30 31 32 33 34 35 36 37 38 39 40 41 42 43 44 45 46 47 48 49 50

000
ASUS43 KBIS 280159
RWRND

NORTH DAKOTA REGIONAL WEATHER ROUNDUP
NATIONAL WEATHER SERVICE BISMARCK ND
800 PM CST THU NOV 27 2014

NOTE: "FAIR" INDICATES FEW OR NO CLOUDS BELOW 12,000 FEET WITH NO
SIGNIFICANT WEATHER AND/OR OBSTRUCTIONS TO VISIBILITY.


NDZ001>003-009>011-017-280300-
NORTHWEST NORTH DAKOTA

CITY           SKY/WX    TMP DP  RH WIND       PRES   REMARKS
WILLISTON      PTCLDY    17  12  80 E8        29.85R WCI   7
MINOT          CLOUDY    12   8  84 SE14      29.94F WCI  -3
$$

NDZ018>021-031>035-040>046-280300-
SOUTHWEST NORTH DAKOTA

CITY           SKY/WX    TMP DP  RH WIND       PRES   REMARKS
BISMARCK       CLOUDY    12   7  80 SE13      29.96F WCI  -3
GARRISON         N/A     12   9  87 SE16      29.91F WCI  -5
HETTINGER ARPT CLEAR     23  19  85 SE8       29.83F WCI  14
$$

NDZ004>008-012>016-024-026-027-054-280300-
NORTHEAST NORTH DAKOTA

CITY           SKY/WX    TMP DP  RH WIND       PRES   REMARKS
GRAND FORKS    LGT SNOW   6   1  80 SE9       30.21F WCI  -8
GRND FRKS AFB  LGT SNOW   5   0  78 S9        30.19F WCI  -9
DEVILS LAKE    CLOUDY     7  -6  56 SE14      30.06F WCI -10
$$

NDZ022-023-025-028>030-036>039-047>053-280300-
SOUTHEAST NORTH DAKOTA

CITY           SKY/WX    TMP DP  RH WIND       PRES   REMARKS
FARGO          LGT SNOW   9  -1  64 SE14      30.21F WCI  -7
JAMESTOWN      LGT SNOW   6   2  83 SE14      30.05F VSB 3/4 WCI -11
$$



USA.gov is the U.S. government's official web portal to all federal, state and local government web resources and services.